This is the latest recevied weather packets stored in our database for station/object W2IRT. If no packets are shown the sender has not sent any weather packets the latest 10 day(s).
| Time | Temp. | Humidity | Pressure | Rain* | Wind** | Luminosity | Snow |
|---|---|---|---|---|---|---|---|
| 1778259315 | 16.67° C | 38% | 1011.6 hPa | 0 mm | - | - | - |
| 1778259015 | 16.11° C | 40% | 1011.7 hPa | 0 mm | - | - | - |
| 1778258716 | 16.11° C | 40% | 1011.7 hPa | 0 mm | - | - | - |
| 1778258415 | 15.56° C | 41% | 1011.7 hPa | 0 mm | - | - | - |
| 1778258115 | 15.56° C | 39% | 1011.8 hPa | 0 mm | - | - | - |
| 1778257815 | 15.56° C | 41% | 1011.8 hPa | 0 mm | - | - | - |
| 1778257515 | 15° C | 42% | 1012 hPa | 0 mm | - | - | - |
| 1778257215 | 15° C | 41% | 1012 hPa | 0 mm | - | - | - |
| 1778256915 | 15° C | 44% | 1012.1 hPa | 0 mm | - | - | - |
| 1778256615 | 15° C | 42% | 1012.1 hPa | 0 mm | - | - | - |
| 1778256315 | 15° C | 42% | 1012.1 hPa | 0 mm | - | - | - |
| 1778256017 | 15° C | 47% | 1011.9 hPa | 0 mm | - | - | - |
| 1778255715 | 14.44° C | 45% | 1012.1 hPa | 0 mm | - | - | - |
| 1778255415 | 14.44° C | 45% | 1012.2 hPa | 0 mm | - | - | - |
| 1778255115 | 14.44° C | 45% | 1012.2 hPa | 0 mm | - | - | - |
| 1778254815 | 14.44° C | 43% | 1012.3 hPa | 0 mm | - | - | - |
| 1778254515 | 15° C | 42% | 1012.4 hPa | 0 mm | - | - | - |
| 1778254215 | 15° C | 42% | 1012.3 hPa | 0 mm | - | - | - |
| 1778253915 | 15.56° C | 40% | 1012.2 hPa | 0 mm | - | - | - |
| 1778253615 | 15.56° C | 42% | 1012.2 hPa | 0 mm | - | - | - |
| 1778253315 | 15° C | 44% | 1012.2 hPa | 0 mm | - | - | - |
| 1778253031 | 15° C | 42% | 1012.1 hPa | 0 mm | - | - | - |
| 1778252715 | 15° C | 43% | 1012.1 hPa | 0 mm | - | - | - |
| 1778252417 | 15° C | 46% | 1012.1 hPa | 0 mm | - | - | - |
| 1778252118 | 15° C | 45% | 1012.1 hPa | 0 mm | - | - | - |
* Rain latest hour (hover to see other rain measurements)
** Current wind speed in m/s (hover to see current wind gust speed)